{"data":{"norad_id":37869,"epoch":"2026-09-19T14:00:01.452096Z","epoch_age_seconds":86987,"freshness":"FRESH","line1":"1 37869U 11064C   26262.58335014  .00000031  00000+0  00000+0 0  9994","line2":"2 37869  65.3423  69.7899 0024728 245.7583 111.5105  2.13101769115778","mean_motion":2.13101769,"eccentricity":0.0024728,"inclination_deg":65.3423,"raan_deg":69.7899,"arg_perigee_deg":245.7583,"mean_anomaly_deg":111.5105,"bstar":0,"rev_number":11577,"period_min":675.73348018523,"perigee_km":19066.829572755,"apogee_km":19192.982149529,"semimajor_km":25508.042861142,"source":"CELESTRAK","updated_at":"2026-09-20T09:00:46.275641Z"}}